[[{"header":{"parameterUnit":"m.s-1","parameterCategory":1,"la1":30.2991,"la2":30.254,"lo1":-89.0895,"lo2":-89.0444,"dy":0.0017,"dx":0.0017,"nx":28,"ny":28,"refTime":"2025-01-20T09:00:00:Z","depth":0,"parameterNumber":2,"parameterNumberName":"U-component_of_WINDS"},"data":[0,0,0,0,0,0,0,0,0,0,0,0,0,0,0,0,0,0,0,0,0,0,0,0,0,0,0,0,0,0,0,0,0,0,0,0,0,0,0,0,0,0,0,0,0,0,0,0,0,0,0,0,0,0,0,0,0,0,-4.2954,-4.2954,0,-4.3012,-4.3013,-4.3013,-4.2872,-4.2868,-4.2863,-4.2859,-4.2921,-4.2927,-4.2932,0,0,0,0,0,0,0,0,0,0,0,0,0,-4.2721,-4.2726,-4.2954,-4.2954,-4.2955,-4.3012,-4.3013,-4.3014,-4.2873,-4.2868,-4.2862,-4.2857,-4.2919,-4.2926,-4.2933,0,0,0,0,0,0,0,0,0,0,0,0,0,-4.2805,-4.2727,-4.2954,-4.2892,-4.2887,-4.3012,-4.3013,-4.3014,-4.2874,-4.2867,-4.2861,-4.2855,-4.2917,-4.2925,-4.2934,-4.3122,0,0,-4.2961,-4.2964,0,0,0,0,0,0,0,0,-4.28,-4.2814,-4.29,-4.2896,-4.2891,-4.2928,-4.2953,-4.305,-4.2876,-4.2879,-4.2859,-4.2851,-4.2929,-4.2936,-4.2962,-4.3125,-4.3128,-4.2961,-4.2967,-4.297,-4.2973,0,0,0,0,0,0,0,-4.2795,-4.281,-4.2977,-4.2902,-4.2896,-4.2861,-4.2866,-4.2971,-4.2941,-4.2878,-4.2868,-4.2877,-4.2925,-4.2954,-4.2962,-4.3129,-4.2961,-4.2969,-4.2974,-4.2978,-4.3447,-4.3454,0,0,0,0,0,0,-4.2797,-4.2806,-4.2975,-4.2978,-4.2828,-4.2871,-4.2876,-4.2923,-4.2939,-4.2935,-4.2883,-4.287,-4.2942,-4.2952,-4.2964,-4.3184,-4.297,-4.2979,-4.2984,-4.344,-4.3448,-4.3456,0,0,0,0,0,0,-4.2792,-4.2813,-4.2973,-4.289,-4.2907,-4.2882,-4.2936,-4.2928,-4.2956,-4.2943,-4.2937,-4.2918,-4.2937,-4.2952,-4.3083,-4.3185,-4.2982,-4.299,-4.3431,-4.3442,-4.3452,-4.3628,0,0,0,0,0,0,-4.2786,-4.2812,-4.2884,-4.2892,-4.2912,-4.3092,-4.2942,-4.2934,-4.2971,-4.2956,-4.2974,-4.2971,-4.2933,-4.3071,-4.3092,-4.3193,-4.2997,-4.3422,-4.3436,-4.3449,-4.3613,-4.3643,-4.3669,0,0,0,0,0,-4.2778,-4.2932,-4.2888,-4.2909,-4.3001,-4.3098,-4.3109,-4.3063,-4.298,-4.3052,-4.3042,-4.297,-4.317,-4.3086,-4.3108,-4.3213,-4.3415,-4.3432,-4.3448,-4.36,-4.3637,-4.3668,0,0,0,0,0,0,-4.2937,-4.2932,-4.2883,-4.3044,-4.3072,-4.3074,-4.3162,-4.3104,-4.3156,-4.314,-4.308,-4.3085,-4.3228,-4.3233,-4.314,-4.3395,-4.3279,-4.33,-4.3387,-4.3422,-4.3449,-4.3445,-4.3005,0,0,0,0,0,-4.299,-4.3069,-4.306,-4.3203,-4.3219,-4.3189,-4.3229,-4.319,-4.3217,-4.3229,-4.3229,-4.3259,-4.3328,-4.3375,-4.3438,-4.3612,-4.3614,-4.3695,-4.3724,-4.3747,-4.3766,-4.3858,-4.3894,-4.351,-4.3509,-4.3509,0,0,-4.3102,-4.3109,-4.3162,-4.3235,-4.3252,-4.3334,-4.32,-4.3293,-4.3354,-4.3243,-4.3367,-4.3369,-4.3397,-4.3551,-4.3618,-4.356,-4.3872,-4.3768,-4.3786,-4.3793,-4.3878,-4.3914,-4.3947,-4.3521,-4.3519,-4.3517,0,0,-4.3348,-4.3361,-4.348,-4.35,-4.3527,-4.3506,-4.3535,-4.3545,-4.3541,-4.3664,-4.3582,-4.3653,-4.3774,-4.3797,-4.3825,-4.4077,-4.4012,-4.4099,-4.4247,-4.4337,-4.4367,-4.4393,-4.4483,-4.4516,-4.4119,-4.4119,-4.4119,0,-4.3483,-4.3604,-4.355,-4.3648,-4.3682,-4.3584,-4.3705,-4.3726,-4.3774,-4.3799,-4.3732,-4.388,-4.3893,-4.405,-4.4111,-4.4137,-4.4168,-4.4097,-4.4367,-4.4393,-4.4417,-4.4501,-4.4535,-4.4129,-4.4128,-4.4127,-4.4126,0,-4.3769,-4.3854,-4.3948,-4.3994,-4.4038,-4.4148,-4.4109,-4.4161,-4.4118,-4.4103,-4.4229,-4.424,-4.4303,-4.4337,-4.4297,-4.4488,-4.4451,-4.4377,-4.4258,-4.4465,-4.4543,-4.4575,-4.4144,-4.4141,-4.4137,-4.4135,0,0,-4.4119,-4.4132,-4.4167,-4.4186,-4.4208,-4.4273,-4.4377,-4.4437,-4.4482,-4.4517,-4.4603,-4.4706,-4.4637,-4.4668,-4.4629,-4.4708,-4.4906,-4.4624,-4.4623,-4.4676,-4.5116,-4.5172,-4.5211,-4.4862,-4.4868,-4.4873,-4.5114,0,-4.4361,-4.4539,-4.4492,-4.467,-4.4747,-4.4654,-4.4744,-4.4768,-4.4756,-4.482,-4.4807,-4.4881,-4.4785,-4.4803,-4.4876,-4.4866,-4.4994,-4.4848,-4.4941,-4.4945,-4.4937,-4.5252,-4.5311,-4.5538,-4.5144,-4.5149,-4.5153,0,-4.4668,-4.4714,-4.4899,-4.4906,-4.4937,-4.5019,-4.507,-4.5132,-4.5156,-4.5141,-4.5176,-4.5121,-4.5222,-4.5103,-4.5242,-4.5144,-4.5179,-4.518,-4.5188,-4.5195,-4.5062,-4.5267,-4.5609,-4.5644,-4.5201,-4.5197,-4.5194,0,-4.4904,-4.5011,-4.5136,-4.5155,-4.5167,-4.5227,-4.5234,-4.5251,-4.529,-4.5334,-4.5358,-4.5414,-4.5445,-4.549,-4.545,-4.5367,-4.5596,-4.5473,-4.5587,-4.5588,-4.564,-4.5638,-4.5993,-4.5663,-4.5662,-4.5662,-4.5661,0,-4.5179,-4.5297,-4.5241,-4.5318,-4.5446,-4.539,-4.5518,-4.5515,-4.5531,-4.5605,-4.5528,-4.5599,-4.5543,-4.5609,-4.5579,-4.5698,-4.5713,-4.5704,-4.5695,-4.5711,-4.5713,-4.5734,-4.5717,-4.5671,-4.5669,-4.5667,-4.5666,0,-4.5465,-4.5433,-4.5562,-4.5562,-4.5564,-4.5659,-4.5658,-4.5729,-4.571,-4.5805,-4.5824,-4.5796,-4.587,-4.5835,-4.5912,-4.5892,-4.6046,-4.6015,-4.6038,-4.603,-4.6145,-4.6135,-4.6527,-4.6575,-4.6215,-4.6218,-4.6221,0,-4.5643,-4.5731,-4.5739,-4.5783,-4.5796,-4.5867,-4.5905,-4.5854,-4.5897,-4.5929,-4.5996,-4.6062,-4.6113,-4.6235,-4.6222,-4.628,-4.625,-4.6383,-4.6259,-4.6272,-4.6252,-4.6247,-4.6255,-4.6409,-4.6413,-4.6416,-4.6419,0,-4.5963,-4.5942,-4.6,-4.6053,-4.6101,-4.614,-4.6172,-4.6213,-4.6161,-4.6214,-4.6287,-4.6327,-4.6404,-4.6471,-4.6522,-4.6529,-4.6467,-4.6458,-4.6488,-4.6506,-4.6515,-4.6511,-4.6106,-4.645,-4.6447,-4.6445,-4.6443,-4.6442,-4.62,-4.6272,-4.6289,-4.6356,-4.6375,-4.6407,-4.6472,-4.6462,-4.6522,-4.6581,-4.6546,-4.6633,-4.6652,-4.6713,-4.6729,-4.6795,-4.6742,-4.6785,-4.6796,-4.6807,-4.6822,-4.6504,-4.6804,-4.6803,-4.6802,-4.6801,-4.6801,0,-4.6515,-4.652,-4.6582,-4.663,-4.6682,-4.6617,-4.6649,-4.6697,-4.6774,-4.6797,-4.6848,-4.6932,-4.6996,-4.6987,-4.7045,-4.71,-4.7072,-4.7117,-4.7112,-4.7115,-4.6866,-4.6835,-4.7138,-4.7138,-4.7138,-4.7138,-4.7138,-4.7138,-4.6685,-4.6804,-4.6785,-4.6912,-4.6917,-4.7,-4.7024,-4.7052,-4.707,-4.7167,-4.722,-4.7213,-4.7223,-4.7281,-4.7336,-4.7332,-4.7357,-4.7412,-4.7397,-4.7166,-4.7132,-4.7101,-4.7071,-4.7418,-4.7419,-4.764,-4.7642,-4.7643]},{"header":{"parameterUnit":"m.s-1","parameterCategory":1,"la1":30.2991,"la2":30.254,"lo1":-89.0895,"lo2":-89.0444,"dy":0.0017,"dx":0.0017,"nx":28,"ny":28,"refTime":"2025-01-20T09:00:00:Z","depth":0,"parameterNumber":3,"parameterNumberName":"V-component_of_WINDS"},"data":[0,0,0,0,0,0,0,0,0,0,0,0,0,0,0,0,0,0,0,0,0,0,0,0,0,0,0,0,0,0,0,0,0,0,0,0,0,0,0,0,0,0,0,0,0,0,0,0,0,0,0,0,0,0,0,0,0,0,-5.8153,-5.8154,0,-5.8238,-5.8239,-5.824,-5.8167,-5.8164,-5.8161,-5.8158,-5.8241,-5.8246,-5.8251,0,0,0,0,0,0,0,0,0,0,0,0,0,-5.7923,-5.7927,-5.8153,-5.8154,-5.8155,-5.8238,-5.8239,-5.824,-5.8167,-5.8164,-5.816,-5.8157,-5.8239,-5.8245,-5.8251,0,0,0,0,0,0,0,0,0,0,0,0,0,-5.8017,-5.7929,-5.8153,-5.8129,-5.8128,-5.8238,-5.8239,-5.824,-5.8168,-5.8164,-5.8159,-5.8155,-5.8238,-5.8245,-5.8252,-5.8389,0,0,-5.8275,-5.8278,0,0,0,0,0,0,0,0,-5.8011,-5.8025,-5.8131,-5.8131,-5.813,-5.8187,-5.8188,-5.829,-5.8169,-5.8153,-5.8158,-5.8153,-5.8227,-5.8235,-5.826,-5.8393,-5.8396,-5.8276,-5.828,-5.8284,-5.8286,0,0,0,0,0,0,0,-5.8005,-5.8021,-5.8186,-5.8133,-5.8132,-5.8112,-5.8121,-5.8207,-5.8214,-5.8154,-5.8149,-5.816,-5.8225,-5.8253,-5.8262,-5.8398,-5.8276,-5.8282,-5.8287,-5.829,-5.8643,-5.8648,0,0,0,0,0,0,-5.8002,-5.8016,-5.8184,-5.8189,-5.8058,-5.812,-5.8129,-5.8173,-5.8213,-5.8214,-5.8164,-5.8156,-5.8243,-5.8253,-5.8264,-5.8425,-5.8284,-5.8291,-5.8295,-5.8638,-5.8644,-5.8649,0,0,0,0,0,0,-5.7997,-5.8017,-5.818,-5.8101,-5.8121,-5.8129,-5.8179,-5.8177,-5.8205,-5.822,-5.8221,-5.8192,-5.824,-5.8254,-5.8358,-5.8427,-5.8294,-5.8301,-5.8632,-5.864,-5.8647,-5.8749,0,0,0,0,0,0,-5.7991,-5.8016,-5.807,-5.8103,-5.8125,-5.8275,-5.8183,-5.8182,-5.8219,-5.821,-5.8246,-5.8248,-5.8237,-5.8347,-5.8366,-5.8435,-5.8307,-5.8626,-5.8636,-5.8644,-5.8739,-5.8759,-5.8775,0,0,0,0,0,-5.7983,-5.8095,-5.8073,-5.8093,-5.8192,-5.8279,-5.8291,-5.8277,-5.8225,-5.8278,-5.8287,-5.8247,-5.8417,-5.8359,-5.8379,-5.8451,-5.8622,-5.8633,-5.8644,-5.8731,-5.8755,-5.8775,0,0,0,0,0,0,-5.8068,-5.8099,-5.8075,-5.8201,-5.8238,-5.8266,-5.8333,-5.8303,-5.8355,-5.8344,-5.8323,-5.8332,-5.8442,-5.8457,-5.8392,-5.8584,-5.851,-5.8526,-5.857,-5.8593,-5.861,-5.8604,-5.8313,0,0,0,0,0,-5.8102,-5.8171,-5.8193,-5.8303,-5.8323,-5.8325,-5.8362,-5.8348,-5.8385,-5.8399,-5.8416,-5.8452,-5.8513,-5.8554,-5.8611,-5.8741,-5.8746,-5.8801,-5.8819,-5.8833,-5.8847,-5.8914,-5.8937,-5.8685,-5.8685,-5.8685,0,0,-5.8172,-5.8197,-5.8242,-5.8321,-5.8347,-5.8417,-5.8338,-5.8416,-5.8467,-5.8411,-5.851,-5.8524,-5.8562,-5.8679,-5.8732,-5.8695,-5.8917,-5.8847,-5.8859,-5.8864,-5.8927,-5.8951,-5.8972,-5.8693,-5.8691,-5.869,0,0,-5.8335,-5.8363,-5.8456,-5.8484,-5.8526,-5.8526,-5.8548,-5.8581,-5.8588,-5.8688,-5.8646,-5.8705,-5.8812,-5.884,-5.8869,-5.9041,-5.9005,-5.906,-5.9153,-5.9219,-5.9239,-5.9256,-5.9316,-5.9337,-5.9073,-5.9073,-5.9074,0,-5.8417,-5.8523,-5.8507,-5.8588,-5.8622,-5.8575,-5.8667,-5.8695,-5.8753,-5.8777,-5.8736,-5.8867,-5.889,-5.9012,-5.9053,-5.9079,-5.9102,-5.9055,-5.9238,-5.9255,-5.9271,-5.9327,-5.935,-5.908,-5.9079,-5.9078,-5.9078,0,-5.8619,-5.8693,-5.8763,-5.8821,-5.8863,-5.8949,-5.8944,-5.8989,-5.8971,-5.8975,-5.9075,-5.9101,-5.9161,-5.9189,-5.9172,-5.9308,-5.9284,-5.9241,-5.9166,-5.9301,-5.9354,-5.9375,-5.9089,-5.9086,-5.9084,-5.9083,0,0,-5.884,-5.8887,-5.8912,-5.8937,-5.8979,-5.9034,-5.9117,-5.9177,-5.9214,-5.9256,-5.9323,-5.9413,-5.9373,-5.9405,-5.9391,-5.9449,-5.9581,-5.9398,-5.9398,-5.9429,-5.9729,-5.976,-5.9786,-5.9558,-5.9562,-5.9565,-5.9725,0,-5.9003,-5.9149,-5.9136,-5.9273,-5.9339,-5.9294,-5.9366,-5.9398,-5.9404,-5.9459,-5.9464,-5.9528,-5.9471,-5.949,-5.9546,-5.9553,-5.964,-5.9541,-5.9618,-5.9621,-5.9608,-5.9813,-5.9847,-5.9997,-5.9746,-5.9749,-5.9752,0,-5.9213,-5.9262,-5.9406,-5.9436,-5.9463,-5.9528,-5.9581,-5.9635,-5.967,-5.9669,-5.9705,-5.968,-5.9761,-5.9686,-5.9795,-5.9729,-5.9759,-5.9767,-5.9772,-5.9778,-5.9694,-5.9822,-6.0045,-6.0067,-5.9784,-5.9781,-5.9779,0,-5.9357,-5.9459,-5.9557,-5.958,-5.9618,-5.9664,-5.9681,-5.9712,-5.9748,-5.9793,-5.9816,-5.987,-5.99,-5.9941,-5.993,-5.9877,-6.0042,-5.9966,-6.0042,-6.0042,-6.0078,-6.0076,-6.0306,-6.0101,-6.01,-6.01,-6.0099,0,-5.954,-5.9629,-5.9622,-5.9683,-5.978,-5.9764,-5.986,-5.9872,-5.9899,-5.9959,-5.9924,-5.9981,-5.9964,-6.002,-6.0012,-6.0103,-6.0117,-6.0117,-6.0113,-6.012,-6.0119,-6.0138,-6.0127,-6.0106,-6.0104,-6.0103,-6.0102,0,-5.9716,-5.9716,-5.982,-5.9847,-5.9855,-5.9926,-5.9948,-6.0004,-6.0006,-6.0083,-6.01,-6.0103,-6.0166,-6.016,-6.0231,-6.0226,-6.0338,-6.0323,-6.0326,-6.0323,-6.0398,-6.039,-6.0648,-6.068,-6.0455,-6.0457,-6.0459,0,-5.9833,-5.99,-5.9934,-5.9973,-5.9993,-6.0056,-6.0092,-6.0078,-6.0117,-6.0161,-6.0211,-6.0271,-6.0318,-6.0422,-6.0429,-6.0483,-6.0467,-6.0554,-6.0475,-6.0478,-6.0466,-6.0462,-6.0467,-6.0569,-6.0572,-6.0574,-6.0575,0,-6.0038,-6.0034,-6.0089,-6.0143,-6.0188,-6.023,-6.0268,-6.0301,-6.0289,-6.0335,-6.04,-6.0437,-6.0509,-6.0568,-6.0619,-6.0634,-6.0603,-6.06,-6.062,-6.0626,-6.0625,-6.0624,-6.0367,-6.0594,-6.0592,-6.0591,-6.059,-6.0589,-6.0187,-6.0244,-6.0276,-6.0338,-6.0365,-6.0401,-6.0454,-6.0463,-6.0517,-6.0575,-6.0563,-6.0635,-6.0666,-6.073,-6.0751,-6.0806,-6.0774,-6.0804,-6.0811,-6.0818,-6.0826,-6.0617,-6.0815,-6.0815,-6.0814,-6.0814,-6.0813,0,-6.0388,-6.0407,-6.0464,-6.0518,-6.0566,-6.0533,-6.0572,-6.0614,-6.0678,-6.071,-6.0757,-6.0831,-6.0888,-6.0899,-6.0953,-6.0995,-6.0981,-6.1009,-6.1005,-6.1009,-6.0852,-6.0829,-6.1019,-6.1019,-6.1019,-6.1019,-6.1019,-6.1019,-6.0499,-6.0593,-6.0593,-6.0699,-6.0716,-6.0787,-6.0812,-6.0844,-6.0869,-6.0953,-6.1001,-6.1008,-6.1031,-6.1086,-6.1136,-6.1138,-6.1158,-6.1192,-6.1188,-6.1041,-6.102,-6.1001,-6.0978,-6.1197,-6.1197,-6.134,-6.1341,-6.1342]}]]